Regional Weather Roundup
Issued by NWS

Home | Current Version | Previous Version | Graphics & Text | Print | Product List | Glossary On
Versions: 1 2 3 4 5 6 7 8 9 10 11 12 13 14 15 16 17 18 19 20 21 22 23 24 25 26 27 28 29 30 31 32 33 34 35 36 37 38 39 40 41 42 43 44 45 46 47 48 49 50
000
ASUS44 KMEG 181410
RWRTN
TENNESSEE HOURLY STATE WEATHER ROUNDUP
NATIONAL WEATHER SERVICE MEMPHIS TN
800 AM CST THU DEC 18 2014

TNZ002-004-019-021-049-052-054-088>092-181500-
WEST TENNESSEE

CITY           SKY/WX    TMP DP  RH WIND       PRES   REMARKS
MEMPHIS INTL   CLOUDY    39  35  86 E6        30.23S FOG     WCI  35
NWS MEMPHIS      N/A     38 N/A N/A MISG        N/A
JACKSON        CLOUDY    37  34  87 CALM      30.25R FOG
DYERSBURG      CLOUDY    36  25  64 E5        30.27S WCI  32
UNION CITY     CLOUDY    32  32 100 CALM      30.25R
PARIS          CLOUDY    30  30 100 E3        30.25R
HUNTINGDON     CLOUDY    32  31  96 E5        30.25S WCI  27
LEXINGTON      CLOUDY    34  34 100 NE3       30.22R
SAVANNAH       CLOUDY    37  36  93 CALM      30.24R
$$

TNZ008-025-027-028-033-062-065-066-181500-
NORTH MIDDLE TENNESSEE

CITY           SKY/WX    TMP DP  RH WIND       PRES   REMARKS
NASHVILLE      CLOUDY    34  31  88 N3        30.25S FOG
CLARKSVILLE    CLOUDY    32  30  92 NE3       30.25F
SMYRNA         CLOUDY    34  32  92 CALM      30.25F
COOKEVILLE     MOSUNNY   34  32  93 CALM      30.20R
CROSSVILLE     MOSUNNY   33  29  85 NE8       30.16F FOG     WCI  26
$$

TNZ061-075-076-078-094-096-097-181500-
SOUTH MIDDLE TENNESSEE

CITY           SKY/WX    TMP DP  RH WIND       PRES   REMARKS
FAYETTEVILLE   CLOUDY    34  30  86 N5        30.20S WCI  30
TULLAHOMA      CLOUDY    34  30  86 CALM      30.20F
WINCHESTER     CLOUDY    34  34 100 CALM      30.21S
MCMINNVILLE    CLOUDY    34  34 100 CALM      30.20S
SHELBYVILLE    PTSUNNY   36  34  93 CALM      30.22F
$$

TNZ017-018-042-046-047-181500-
NORTHEAST TENNESSEE

CITY           SKY/WX    TMP DP  RH WIND       PRES   REMARKS
TRI CITIES     CLOUDY    30  29  96 CALM      30.21R
ELIZABETHTON   CLOUDY    28  27  93 CALM      30.20R
$$

TNZ012-013-036-069-073-074-181500-
CENTRAL EAST TENNESSEE

CITY           SKY/WX    TMP DP  RH WIND       PRES   REMARKS
KNOXVILLE      PTSUNNY   35  30  82 N5        30.22S WCI  31
OAK RIDGE      CLOUDY    35  29  78 CALM      30.24S
GATLINBURG     PTSUNNY   30  30 100 CALM      30.20F
MORRISTOWN     PTSUNNY   32  30  93 NE3       30.21S
$$

TNZ083-085-099-181500-
SOUTHEAST TENNESSEE

CITY           SKY/WX    TMP DP  RH WIND       PRES   REMARKS
CHATTANOOGA    PTSUNNY   38  32  79 N7        30.22S WCI  33
$$

SKY/WX REPORTED AS FAIR MEANS FEW OR NO CLOUDS BELOW
12 THOUSAND FEET.



USA.gov is the U.S. government's official web portal to all federal, state and local government web resources and services.